Wind_Speed
44 45 45 45 46 46 47 47 48 48 49 49 49 50 50 50 50 49 49 49 50 50 51 51 51 51 51 51 51 51 51 51 52 53 53 53 53 53 53 53 53 53 53 54 54 55 55 54 52 51 50 49 49 48 49 49 49 49 49 50 50 51 52 53 54 53 52 52 51 48 46 45 46 48 50 51 51 49 47 46 45 44 42 40 40
44 44 45 45 46 47 48 49 50 50 50 51 51 51 51 50 50 50 49 49 49 49 50 50 50 50 50 50 50 51 51 51 51 52 53 53 53 53 53 53 53 53 53 54 55 56 55 54 53 51 50 49 48 48 49 48 48 48 49 49 50 50 51 52 52 52 51 52 51 49 46 44 43 45 47 49 50 49 47 45 44 43 41 40 39
44 45 46 46 47 48 49 50 50 50 51 51 51 51 51 51 51 51 50 50 50 50 50 49 49 50 50 50 50 50 51 51 51 52 53 53 53 53 53 53 52 53 54 54 55 56 55 54 52 51 50 49 48 48 49 48 47 48 48 48 49 49 49 50 50 50 50 51 52 48 44 42 42 43 46 48 49 48 47 45 43 42 41 39 39
45 46 47 48 48 49 49 50 50 51 51 51 52 52 52 52 52 52 51 51 51 51 51 50 50 49 49 50 50 50 51 51 51 52 52 52 53 53 53 53 51 52 53 54 55 55 54 53 52 50 49 48 48 48 48 47 47 47 47 47 47 47 48 48 48 48 49 50 51 48 44 42 41 42 44 47 47 47 46 45 43 41 41 40 38
46 47 48 49 49 50 51 51 51 52 52 52 52 53 53 53 53 53 52 52 52 52 51 51 51 50 50 49 50 50 50 51 51 52 52 52 52 53 53 52 51 51 52 53 54 54 53 52 51 49 48 47 47 47 46 46 45 45 46 46 45 45 47 47 46 46 49 50 50 48 44 41 40 40 42 45 46 46 45 44 43 41 41 40 38
48 48 49 50 51 51 52 53 53 53 54 54 54 54 54 54 54 54 54 53 53 53 52 51 51 51 50 50 50 50 50 50 51 51 52 52 52 52 52 52 51 51 51 51 52 52 52 50 49 48 47 47 47 46 45 44 44 44 44 44 44 44 45 46 45 46 48 49 49 48 45 41 39 39 40 43 46 47 45 43 42 41 41 40 38
49 50 51 51 52 53 54 54 54 55 55 55 55 55 55 55 54 54 54 54 54 53 53 52 51 51 51 50 50 50 50 50 50 51 51 51 51 51 51 51 50 50 50 50 50 50 50 48 47 46 46 45 45 44 43 43 43 43 44 43 43 44 45 45 45 46 47 47 48 48 44 40 37 38 39 42 45 46 44 43 42 40 40 40 38
51 51 52 53 53 54 55 55 55 55 56 56 56 56 55 55 55 55 55 55 54 54 53 53 52 51 51 50 50 49 49 49 49 50 50 50 50 50 50 50 49 49 49 48 48 48 47 46 45 44 44 44 44 43 42 42 42 43 43 43 43 44 44 43 44 45 45 46 46 46 43 39 37 38 39 40 43 43 42 43 42 39 38 39 38
52 53 54 54 55 56 56 56 56 56 57 57 56 56 56 56 56 55 55 55 55 54 54 53 52 52 51 50 49 48 48 48 48 48 48 49 48 48 48 48 48 48 47 47 46 45 44 43 43 42 43 43 42 41 41 41 42 42 42 42 43 43 42 42 43 43 44 45 45 44 42 38 36 38 38 38 40 41 41 43 41 37 37 38 38
54 54 55 56 57 57 58 58 58 58 58 58 57 57 57 56 56 56 55 55 55 54 54 53 52 52 51 50 49 48 47 47 47 47 47 47 47 47 47 47 47 46 45 45 44 43 42 41 41 40 41 41 40 40 40 41 41 41 41 42 42 42 41 41 41 42 43 44 43 42 40 37 36 37 37 36 39 41 41 41 38 37 37 37 37
55 56 56 57 58 59 59 59 59 58 58 58 58 57 57 56 56 56 55 55 54 53 53 52 52 51 50 49 48 47 47 46 46 46 45 45 44 45 45 45 45 45 44 43 42 41 40 39 39 39 39 39 39 39 40 40 40 40 41 41 41 41 40 40 40 41 42 42 41 40 38 36 35 35 35 36 38 41 41 39 36 36 37 37 36
56 57 57 58 58 59 59 59 59 58 58 58 57 57 56 56 55 55 55 54 53 53 52 51 50 49 49 48 47 47 46 46 45 45 44 43 42 43 43 43 43 43 43 42 40 40 39 39 38 38 38 37 37 38 39 40 40 40 41 41 40 40 40 39 39 39 40 40 39 38 36 34 33 33 34 36 38 40 39 37 35 35 36 37 36
57 57 58 58 58 59 59 58 58 57 57 57 56 56 55 55 55 54 54 53 52 51 50 50 49 48 48 47 46 46 45 45 44 43 43 42 41 40 41 41 40 42 43 43 40 39 38 38 38 37 36 36 36 37 39 40 40 40 40 40 40 40 39 38 38 39 39 39 37 35 33 31 31 32 33 36 39 40 37 34 33 35 36 36 36
57 58 58 58 58 58 57 57 57 56 56 55 55 55 54 54 53 53 53 52 51 50 49 48 47 47 46 46 45 45 44 44 43 42 42 41 39 38 38 38 39 41 43 43 41 38 37 38 37 36 35 35 36 38 39 40 40 40 40 40 40 39 37 36 36 37 37 37 36 33 30 29 30 31 33 37 40 38 34 32 33 35 36 35 35
57 57 57 56 56 56 56 56 55 55 54 54 53 53 52 52 52 51 51 50 49 48 47 47 46 46 45 45 44 44 43 43 42 41 41 39 37 36 37 38 39 41 42 43 42 40 37 37 36 35 35 35 36 38 40 40 40 40 40 39 39 37 36 34 34 35 35 35 33 29 28 29 30 31 34 38 39 35 32 33 34 34 34 34 33
56 56 56 55 55 55 55 55 55 54 54 53 52 52 51 50 50 50 49 48 47 47 46 45 45 44 44 44 43 43 42 41 41 40 39 37 35 35 37 38 39 40 42 43 42 41 38 36 36 36 36 36 37 38 39 39 40 40 39 38 37 35 34 33 32 33 33 33 30 26 27 29 30 32 36 37 35 33 32 32 32 32 32 32 32
55 55 54 54 54 54 54 54 54 53 53 52 51 51 50 49 49 49 49 48 47 46 45 44 44 43 43 43 42 42 41 40 39 37 36 35 34 34 36 38 39 40 41 42 42 41 39 37 36 36 37 37 37 37 38 39 39 39 38 36 35 34 33 31 31 32 32 31 28 26 26 29 30 32 35 34 33 32 32 30 29 30 30 30 30
54 54 54 53 53 53 53 53 53 52 52 51 51 50 49 49 48 48 48 47 46 45 45 44 43 42 42 41 41 40 40 39 38 36 34 32 32 33 36 37 39 40 41 42 42 42 40 38 37 37 37 36 35 35 36 37 38 38 35 34 34 32 30 30 31 31 31 30 29 27 27 29 30 32 33 33 32 30 29 27 28 28 27 28 29
53 53 53 53 53 53 52 52 51 51 51 50 50 49 48 48 47 46 46 46 45 44 44 43 42 41 40 40 39 38 38 37 36 34 32 30 30 32 35 36 38 39 40 40 41 41 40 39 38 37 35 33 33 34 34 35 36 36 34 33 32 30 28 29 31 30 30 30 29 29 29 30 32 33 32 31 30 28 26 26 27 26 25 26 28
52 52 52 52 51 51 51 51 50 50 50 49 49 48 47 46 46 45 45 44 43 42 42 42 41 40 39 38 37 36 37 36 34 31 29 29 29 30 33 35 37 37 36 37 38 38 38 38 38 36 32 30 31 32 32 33 34 34 35 33 29 26 27 30 30 30 30 30 29 29 30 32 34 35 32 31 29 27 26 25 24 24 24 25 26
52 52 51 51 50 50 49 49 49 49 48 48 47 46 45 45 44 44 44 43 42 41 40 40 40 38 37 36 35 34 34 34 33 30 27 26 27 28 31 33 34 33 32 33 33 33 34 35 35 32 29 28 28 29 29 30 31 33 34 31 26 25 28 29 29 29 30 29 30 31 33 34 36 35 33 30 27 25 23 23 22 22 23 24 24
51 51 50 49 49 48 48 48 48 48 47 47 46 45 44 43 43 43 43 42 41 40 39 39 38 37 35 33 32 31 31 31 31 29 26 24 24 25 27 29 28 28 28 28 28 28 29 29 29 27 27 26 26 27 28 29 31 33 33 29 26 26 28 27 27 29 30 29 30 33 34 35 35 32 29 25 23 22 22 21 20 21 22 22 22
50 49 49 48 47 47 47 47 47 46 46 45 45 44 43 42 41 42 41 41 40 38 37 37 36 35 33 31 29 28 27 27 28 27 25 23 21 21 22 22 22 23 24 22 21 22 22 22 22 22 24 25 26 27 28 29 31 32 31 29 27 26 27 27 28 29 29 29 31 33 35 35 33 29 25 22 20 21 22 20 19 20 21 20 20
49 48 47 47 46 46 46 46 45 45 44 44 43 43 42 41 40 40 40 40 39 37 35 35 34 33 32 30 28 26 23 23 23 23 22 19 17 17 17 18 18 19 19 17 17 17 17 16 18 20 22 24 25 26 28 30 31 31 30 29 28 27 26 26 27 28 28 29 31 33 34 33 30 26 23 21 20 21 22 21 19 20 19 18 17
48 47 47 46 46 46 45 45 44 43 42 42 42 42 41 40 39 39 39 39 38 36 33 32 32 32 30 29 26 22 19 19 20 18 16 15 14 14 14 15 16 17 17 16 16 16 15 16 18 20 21 23 25 27 30 30 29 29 30 30 30 29 27 25 25 26 28 29 31 32 32 30 27 24 23 22 22 22 23 21 19 18 16 15 15
47 47 47 46 46 45 45 44 43 42 41 40 40 41 41 40 39 38 38 39 37 34 32 31 30 29 27 25 22 17 16 19 19 15 13 14 14 13 13 13 15 16 17 18 17 17 17 17 18 20 22 23 25 28 29 28 27 28 30 30 30 30 29 26 25 25 27 29 30 31 29 27 26 26 26 25 24 23 22 20 17 16 15 14 15
47 46 46 46 45 45 45 44 43 42 41 39 39 39 39 39 38 37 38 38 36 33 31 29 29 29 25 22 19 15 15 16 17 16 15 16 15 14 13 13 14 15 16 17 18 17 17 17 18 21 22 23 25 26 26 26 26 27 29 30 30 30 29 27 26 26 27 29 29 28 27 27 28 28 27 25 24 24 22 19 16 15 15 16 16
47 46 46 46 45 45 44 44 43 42 41 39 38 38 38 37 36 35 36 37 36 34 33 31 30 30 26 22 19 15 12 11 16 21 20 19 19 18 17 14 13 14 15 16 17 16 15 17 19 20 21 22 23 24 23 24 25 27 28 28 28 28 29 28 28 28 28 29 28 28 28 29 29 28 27 25 24 23 21 19 17 16 17 17 17
46 46 46 45 45 44 44 43 43 42 41 39 37 36 37 37 35 33 33 34 33 31 31 31 30 30 28 23 18 16 12 9 13 19 19 16 16 18 18 15 12 12 13 14 15 14 15 18 18 18 18 19 20 20 20 21 23 25 26 26 27 28 29 30 30 30 30 30 30 29 29 29 28 28 27 25 23 23 22 20 18 18 17 16 16
46 46 45 44 44 44 43 43 42 42 41 40 38 35 33 33 32 31 30 31 30 27 26 25 26 27 28 23 17 14 13 10 9 11 13 11 10 11 13 12 10 10 10 10 11 13 14 16 16 16 17 18 17 17 17 18 19 21 22 23 25 28 30 31 31 31 31 29 29 29 29 28 28 28 26 24 23 24 23 21 19 18 17 16 16
46 46 45 44 43 43 43 42 42 41 40 40 39 37 34 30 28 27 27 28 29 26 23 22 23 25 26 23 18 15 13 11 10 10 9 9 8 7 7 7 6 6 8 7 5 8 11 13 15 17 17 17 17 17 16 13 13 15 18 20 24 27 29 30 30 30 30 29 27 27 27 27 28 28 26 24 23 24 23 21 19 18 18 17 16
47 46 45 44 43 42 42 42 41 41 40 40 39 38 37 33 28 24 22 23 26 26 24 22 22 23 24 23 21 19 18 15 15 15 13 12 11 9 8 6 4 4 5 5 2 5 9 12 15 17 17 16 17 18 16 14 12 12 14 17 23 27 28 28 28 28 29 28 27 27 28 28 28 27 25 24 24 23 23 22 19 18 18 18 17
46 46 45 44 43 42 41 41 41 41 40 40 38 37 37 36 33 29 24 21 20 22 22 22 22 22 23 22 21 22 22 22 20 18 17 16 14 12 10 9 5 3 5 5 3 4 7 11 14 16 16 16 17 17 17 16 16 16 16 18 22 26 28 28 28 27 28 28 29 29 29 29 28 27 25 24 23 23 23 22 20 20 20 19 18
45 45 44 44 43 42 41 41 41 41 40 39 38 37 36 35 35 34 31 26 21 17 17 19 20 21 21 20 19 21 24 25 25 22 20 19 17 14 12 10 7 5 6 7 6 5 5 8 12 15 16 17 17 17 17 17 18 19 19 21 23 26 27 28 28 27 27 28 29 29 29 29 28 27 25 24 23 23 22 21 20 20 20 20 19
44 43 43 43 42 41 41 40 40 40 40 39 38 37 36 35 34 34 33 32 28 23 20 19 19 20 20 19 17 17 20 23 25 25 24 21 19 16 15 13 11 8 7 8 9 9 8 8 10 13 15 17 18 19 19 19 19 20 21 23 24 26 28 28 28 28 29 29 29 29 30 30 29 27 26 25 24 23 23 22 20 20 20 20 20
43 43 43 42 42 41 41 40 40 40 40 39 38 36 36 35 34 33 32 31 30 28 25 22 20 19 19 19 18 17 17 19 21 23 23 22 19 17 16 16 15 13 11 10 10 11 12 12 12 13 15 17 18 20 20 21 21 22 23 25 26 27 29 29 30 30 31 31 32 32 32 32 32 30 28 27 25 25 24 22 21 20 20 21 20
43 43 43 43 42 41 41 40 39 39 38 38 37 36 35 34 33 32 31 30 29 28 26 24 21 18 17 17 16 16 17 18 18 19 20 21 20 19 18 17 17 16 15 14 13 14 14 15 15 15 15 17 18 20 21 22 23 23 24 26 28 29 30 32 32 33 34 34 35 35 35 35 34 32 30 28 27 26 25 24 23 22 21 22 22
42 43 43 43 43 42 41 40 39 38 37 37 36 36 35 34 32 31 30 29 29 28 27 25 23 21 18 16 15 14 14 15 16 16 17 18 19 20 20 19 18 18 17 17 17 17 17 17 18 18 17 17 18 19 21 22 23 24 25 26 28 29 31 33 35 36 37 37 37 37 37 37 35 33 32 30 29 28 27 26 24 23 22 22 22
42 41 42 42 42 41 41 40 39 38 37 36 36 35 34 33 32 31 29 28 28 28 27 25 24 23 21 19 16 14 12 12 13 14 15 16 17 18 19 19 19 18 18 18 18 19 19 20 20 19 19 18 17 18 19 20 22 24 25 26 28 29 30 32 34 36 36 37 38 38 37 37 35 34 32 32 31 30 29 27 25 24 23 23 22
43 41 41 41 41 41 41 40 39 38 37 36 36 35 34 33 32 31 30 28 27 27 27 26 24 23 22 21 19 16 14 12 11 11 12 13 14 15 16 16 16 17 17 17 17 18 19 20 20 20 19 18 17 17 18 19 21 23 24 26 27 28 29 30 31 32 33 33 34 34 34 33 31 30 30 30 30 29 28 27 26 25 24 23 23
43 42 41 41 41 40 40 40 38 37 37 36 36 35 34 34 32 31 30 29 27 27 26 26 25 24 23 22 21 19 17 15 13 11 10 11 11 12 13 13 14 15 15 16 16 16 16 17 18 18 18 17 16 16 16 17 18 20 22 24 25 26 26 27 28 29 29 29 29 29 28 27 27 27 27 27 28 27 27 27 26 25 25 24 24
43 42 41 41 40 40 40 39 38 37 36 35 35 34 34 33 33 31 30 29 28 27 26 25 24 23 22 21 20 19 18 17 15 13 12 11 10 10 11 11 12 12 13 14 14 14 14 15 15 16 16 16 15 15 14 15 16 17 18 20 21 22 23 24 25 26 26 27 27 27 26 26 26 26 26 26 27 27 27 27 27 26 25 25 24
43 42 41 40 40 39 39 38 38 37 36 35 34 34 33 33 32 31 30 29 28 26 25 25 23 22 21 20 20 19 18 17 16 15 13 12 11 10 10 10 10 11 11 12 12 13 13 14 15 15 15 15 15 14 14 14 15 15 16 17 18 19 20 21 22 23 24 25 26 26 26 27 27 27 27 27 27 28 27 27 27 27 26 25 25
43 42 41 40 40 39 38 38 37 37 36 35 34 33 33 32 32 31 30 29 27 26 25 25 24 22 21 19 19 18 17 17 16 15 14 13 12 11 10 10 10 10 10 11 11 11 12 13 14 14 14 15 15 15 14 15 15 15 15 16 16 17 18 18 19 20 21 22 23 24 25 26 26 26 27 27 26 26 26 26 26 26 25 25 25
42 41 41 40 39 38 37 36 36 36 35 34 33 32 32 31 31 31 30 28 27 26 25 24 24 23 22 20 18 17 17 16 16 15 14 13 13 12 11 10 10 10 10 10 10 11 11 11 12 13 14 14 15 15 15 15 15 15 16 16 16 16 17 17 18 18 19 19 21 21 22 23 23 24 24 24 24 24 24 24 24 24 24 24 25
42 41 40 39 38 38 37 36 35 34 34 34 32 31 31 30 30 30 29 28 27 26 25 24 23 22 22 21 19 18 17 16 15 15 14 14 13 12 11 11 10 10 10 10 10 10 10 11 11 12 13 14 15 15 15 15 16 16 16 16 16 16 16 17 17 17 18 18 19 19 20 20 21 21 21 21 22 22 22 22 22 22 22 23 24
41 40 40 39 38 37 37 36 35 34 33 33 32 31 30 30 30 29 29 28 27 26 25 24 23 22 21 21 19 18 17 16 15 15 14 14 13 12 12 11 11 10 10 10 10 10 11 11 11 11 12 13 14 15 15 15 16 16 17 17 17 17 17 17 17 17 17 18 18 18 19 19 20 20 20 20 20 20 20 20 20 20 21 21 22
41 40 39 38 37 36 36 35 34 33 33 32 32 31 30 29 29 28 28 28 27 26 25 24 23 22 21 20 19 19 17 16 15 15 14 14 13 12 11 11 11 10 10 10 10 10 11 11 11 11 12 13 13 14 15 15 16 17 17 17 18 17 17 17 17 17 17 17 17 18 18 18 19 19 19 19 19 19 19 19 20 20 20 20 20
40 39 39 38 36 36 35 35 34 33 32 32 31 31 30 29 28 28 28 27 26 26 25 24 23 22 21 19 19 18 17 16 16 15 14 14 14 13 12 11 11 11 10 10 10 10 11 11 11 12 12 13 13 14 15 15 16 17 17 18 18 18 18 18 18 18 18 18 18 18 18 18 18 19 19 19 19 19 19 19 19 19 19 19 19
40 39 38 37 36 35 35 34 33 33 32 32 31 31 30 29 28 28 27 27 26 25 24 24 23 23 21 20 18 17 17 16 16 15 14 13 13 13 12 11 11 11 11 10 10 10 10 11 12 12 12 13 14 14 15 16 16 17 17 18 18 19 19 19 19 18 18 18 18 18 18 18 18 18 18 19 19 19 19 19 19 19 19 19 19
40 39 38 37 36 36 35 34 33 32 31 31 31 31 30 29 28 27 27 26 26 25 24 23 23 22 22 21 19 17 17 16 16 15 14 13 13 13 13 12 11 11 11 10 10 10 10 10 11 12 12 13 14 14 15 16 16 17 18 18 18 19 19 19 19 19 19 19 19 19 19 19 19 19 19 19 19 19 19 19 19 19 19 19 19
Wind_Direction
313 312 312 311 312 312 312 313 313 313 313 312 311 310 309 308 307 305 304 302 300 298 296 294 292 290 287 286 284 282 281 280 280 280 280 279 279 279 279 279 279 279 278 277 276 276 276 276 275 274 273 271 268 265 263 263 262 262 262 262 261 260 259 259 261 263 263 262 260 258 256 250 242 238 238 240 242 243 241 241 240 240 241 240 240
314 314 314 315 315 316 316 316 315 315 314 312 311 309 308 307 306 305 304 302 300 298 296 295 293 291 289 287 285 284 283 282 281 281 281 280 280 279 279 279 279 278 277 276 276 276 276 276 275 274 272 270 267 264 262 261 261 261 261 260 260 258 257 257 259 260 261 260 260 260 258 252 243 237 237 239 241 242 241 241 240 239 240 239 239
317 317 318 318 317 317 316 315 314 313 312 311 310 309 308 307 306 305 304 303 301 299 297 296 294 292 290 289 287 286 284 283 282 282 281 281 280 279 279 278 278 277 277 276 276 275 276 276 275 273 271 269 265 262 261 261 260 260 260 258 257 255 254 255 257 258 259 260 261 261 258 253 246 239 237 239 240 241 240 240 240 240 239 239 239
319 319 318 318 317 315 314 313 313 312 311 310 310 309 308 308 307 306 304 303 301 300 298 297 295 293 291 290 288 287 285 284 283 282 281 281 280 280 279 278 277 276 276 276 275 275 275 275 274 272 270 267 263 260 260 260 260 260 258 256 253 252 252 253 255 258 259 260 261 261 257 253 247 241 238 240 241 242 240 239 240 240 240 240 240
319 318 317 316 316 315 314 313 313 312 312 311 310 309 309 308 307 306 305 303 302 300 299 298 296 295 293 291 289 288 286 285 284 283 282 281 280 280 279 279 278 276 275 275 274 275 275 274 272 271 268 265 261 259 259 260 259 258 256 253 250 249 251 252 254 256 258 260 261 260 257 252 247 242 239 241 243 243 241 239 239 239 239 240 241
319 318 317 317 316 316 315 315 314 313 313 312 311 310 309 308 307 306 305 303 302 301 300 298 297 296 294 293 291 289 288 286 285 284 283 282 281 281 280 279 278 277 276 275 274 274 274 273 271 269 266 263 259 258 259 259 258 255 252 248 246 247 249 251 253 255 257 259 260 259 257 252 248 242 239 241 243 243 242 241 239 238 239 239 240
319 318 318 318 317 316 316 315 314 314 313 312 311 310 309 308 307 306 304 303 302 301 300 299 298 296 295 293 292 290 288 287 286 285 284 283 282 281 281 280 278 277 276 275 274 274 273 272 270 267 264 261 258 258 258 257 254 251 248 245 244 246 248 251 254 254 256 257 258 258 256 252 248 243 239 240 243 244 243 242 239 238 240 239 239
320 320 319 319 318 317 316 315 314 313 312 312 311 310 309 308 307 305 304 303 302 301 300 299 298 296 295 293 292 290 288 287 286 285 284 283 282 281 280 279 278 277 276 275 274 273 272 270 268 265 262 259 257 256 256 253 250 247 245 243 243 246 249 252 254 254 254 255 256 256 255 252 248 244 240 239 242 245 245 243 239 236 240 242 239
321 320 319 318 317 316 315 314 314 313 312 311 310 309 308 307 307 305 304 303 302 301 300 299 298 296 295 293 291 290 289 287 286 285 284 283 282 281 280 279 278 277 276 275 274 271 270 268 265 262 259 256 255 255 253 249 246 243 242 243 245 248 251 253 254 253 253 254 254 255 255 252 247 244 241 239 242 245 246 244 241 236 237 241 241
320 320 319 318 317 316 315 314 314 313 312 311 310 310 309 308 307 306 304 303 302 301 300 299 298 297 295 294 292 291 289 287 286 285 284 284 283 283 281 280 279 278 276 275 273 270 267 265 262 259 256 255 253 252 249 245 242 241 242 244 247 250 252 253 253 252 252 254 254 255 254 251 248 245 242 241 242 244 245 245 242 238 236 238 241
320 319 319 318 317 316 315 314 314 313 313 312 311 310 309 308 307 306 304 303 302 301 300 299 298 296 295 294 293 291 290 288 287 286 285 285 284 283 282 281 280 278 276 274 271 269 265 262 259 256 254 253 251 248 244 240 239 240 243 246 249 252 253 252 252 252 252 253 254 254 254 251 248 246 242 241 242 244 245 245 242 239 238 238 239
320 319 318 318 316 316 315 314 314 314 313 312 311 310 309 308 307 305 304 303 302 301 300 299 298 297 295 294 293 291 290 289 288 287 286 286 284 283 281 280 279 277 275 272 268 265 263 259 256 254 252 251 248 244 240 237 237 240 244 248 251 253 253 252 252 252 251 252 252 252 252 250 247 244 242 241 243 244 245 244 241 239 239 239 239
319 319 318 317 316 316 315 315 314 314 313 313 312 311 310 309 307 306 304 303 303 302 300 299 298 297 296 294 293 291 290 289 288 288 287 286 284 282 280 278 277 274 272 270 265 261 259 257 254 251 250 247 243 239 236 235 237 241 244 249 252 252 252 251 251 250 250 251 251 250 250 249 245 242 240 241 242 243 244 244 242 239 238 239 240
319 319 318 318 317 317 316 316 315 315 314 314 313 312 311 310 308 307 306 304 303 302 301 300 299 298 297 295 293 292 290 289 289 288 286 285 283 280 277 274 271 269 267 267 264 260 256 255 253 250 247 243 238 234 234 235 237 241 244 249 252 252 251 250 250 251 251 252 252 251 248 246 242 239 238 240 241 243 244 244 242 240 239 239 240
319 319 319 318 318 318 317 317 316 316 316 315 314 313 312 311 310 308 307 306 305 305 303 302 301 300 299 298 295 293 292 291 290 288 286 284 282 278 274 270 266 265 264 263 262 260 256 253 251 248 244 239 234 232 233 235 238 241 245 250 252 251 250 249 249 250 252 252 252 250 246 242 238 235 235 238 240 242 243 243 241 240 240 239 239
320 320 320 319 319 319 318 318 317 317 317 316 315 315 314 313 312 311 309 309 308 307 306 305 303 302 301 299 297 294 292 291 290 288 286 285 281 276 272 268 265 262 261 260 260 260 256 252 248 246 242 237 232 231 233 236 239 243 248 251 251 250 250 249 247 248 249 250 249 246 243 240 234 231 233 236 239 241 241 242 242 241 241 240 240
320 320 321 320 320 320 319 319 319 318 318 318 317 317 316 315 315 313 312 311 310 309 308 307 306 304 302 301 299 296 294 292 290 288 286 285 281 275 271 267 264 262 260 258 258 258 257 252 247 244 242 237 232 230 234 238 241 245 250 252 251 250 249 248 246 245 245 246 244 239 237 236 231 229 231 234 237 239 240 241 241 241 241 240 240
321 321 322 322 322 322 321 320 320 320 320 320 319 319 318 317 316 315 313 313 312 312 311 309 308 307 305 304 302 299 296 294 292 289 286 284 280 274 270 267 264 262 260 258 257 257 257 255 249 245 242 238 233 231 234 240 244 248 251 251 251 250 248 246 245 244 242 240 237 233 230 228 225 225 229 232 235 236 237 239 239 239 239 240 240
323 323 323 323 323 323 322 322 322 322 322 321 321 321 320 319 317 316 315 314 314 313 312 310 309 310 309 308 306 303 299 297 295 293 289 284 279 274 270 267 264 261 260 260 259 259 259 257 254 250 244 238 233 232 235 241 247 250 251 250 249 249 247 244 242 240 238 235 232 228 226 223 220 220 224 229 232 232 232 235 237 236 236 238 239
324 324 324 324 323 323 323 323 323 323 323 322 322 322 321 319 318 317 316 315 315 315 314 312 312 313 313 312 310 308 304 301 299 296 292 286 280 275 270 267 265 264 264 264 264 263 262 260 258 255 248 237 231 231 235 241 246 249 250 250 248 246 243 241 238 236 234 231 227 223 221 219 218 218 219 223 228 230 230 232 236 236 235 237 238
325 325 324 324 323 324 324 324 324 324 324 323 323 323 322 321 319 318 317 317 316 316 316 315 315 316 317 316 315 312 308 306 304 300 294 287 281 276 271 269 268 268 267 267 267 267 265 262 260 256 248 236 230 232 235 238 242 246 248 248 246 242 239 237 235 233 230 227 223 220 216 216 218 219 220 222 224 228 230 230 232 235 235 236 238
325 325 324 324 324 325 325 324 324 324 324 324 323 323 323 322 321 320 319 318 318 319 319 318 318 319 319 319 317 314 310 307 305 303 298 290 283 278 274 272 272 270 268 267 267 267 265 261 257 250 241 234 232 234 235 235 236 241 245 245 242 239 237 234 231 230 227 222 220 217 215 215 218 220 222 223 223 225 228 227 225 228 232 234 236
325 325 325 325 326 326 325 325 325 326 326 325 325 324 324 323 323 321 320 319 319 320 321 321 320 320 320 321 319 315 309 306 304 304 302 298 291 284 280 278 276 273 270 268 265 262 259 253 245 238 235 235 235 236 236 234 234 238 242 242 238 236 234 230 227 225 223 220 217 216 214 216 218 219 219 219 218 220 222 220 218 221 227 231 234
326 326 326 327 327 327 326 326 326 327 327 327 326 326 325 325 324 323 322 321 321 322 323 321 320 320 322 323 320 314 309 309 310 309 307 305 299 291 286 284 279 275 273 269 262 255 249 242 237 236 236 237 237 236 236 236 235 237 239 239 234 230 227 225 223 221 219 217 215 215 215 216 217 216 215 213 212 214 216 215 215 220 226 231 233
327 327 328 328 328 328 327 327 328 329 329 328 328 327 326 327 326 325 322 321 322 324 324 322 321 321 323 323 320 315 319 327 327 321 318 318 314 305 296 287 280 277 273 267 259 251 245 241 240 240 238 234 233 234 235 235 235 235 236 237 232 226 221 218 217 217 215 213 213 214 215 215 213 212 212 211 209 212 215 215 215 219 224 229 232
328 329 329 329 329 328 328 328 329 330 330 330 330 329 328 329 328 326 323 322 323 325 325 324 322 320 322 325 324 328 345 348 342 337 337 338 333 324 314 299 284 277 270 264 258 251 244 239 236 236 235 232 231 232 234 235 234 233 232 232 229 224 218 211 209 211 211 209 211 213 214 212 211 211 213 213 210 212 217 218 217 219 221 225 230
330 330 330 330 329 329 329 329 330 331 332 332 332 331 330 330 329 328 324 322 324 327 327 325 322 321 326 332 333 343 3 5 2 3 355 344 336 327 319 312 297 283 273 264 258 250 240 232 229 231 233 233 233 234 235 233 230 228 229 228 225 220 215 207 203 204 206 207 209 211 211 210 211 213 214 213 212 214 218 220 222 222 222 223 228
331 330 330 330 330 330 330 330 331 332 332 333 333 332 331 331 331 330 327 325 327 329 329 327 325 325 330 336 335 341 359 14 17 13 358 340 332 324 314 308 299 287 279 269 261 251 238 229 228 230 233 234 235 236 236 232 228 225 225 224 221 216 211 205 200 199 201 204 205 206 208 210 213 215 216 214 214 216 219 222 224 226 225 225 228
331 331 331 331 331 331 331 331 332 332 333 333 334 334 333 332 332 331 328 328 330 331 330 328 324 321 325 331 329 330 341 1 15 10 356 339 334 330 323 316 305 294 289 278 264 251 237 230 229 231 232 233 233 232 231 230 227 224 221 219 215 211 207 204 199 196 198 201 202 204 208 211 213 216 217 216 216 219 221 222 224 226 226 227 228
331 331 331 332 332 332 332 332 333 333 333 333 333 334 334 334 334 333 329 327 329 330 328 323 315 310 315 321 315 307 318 330 342 353 351 340 328 330 335 332 319 307 305 293 267 246 235 229 226 224 222 220 218 217 218 219 221 221 219 216 211 207 205 204 200 197 196 200 203 206 209 211 214 217 217 216 218 221 224 225 225 225 225 224 225
332 332 332 333 333 333 333 333 333 333 334 334 333 332 333 334 335 335 331 327 327 328 326 320 311 305 308 312 301 279 277 286 284 293 315 312 292 297 323 336 332 318 315 315 282 235 223 218 213 210 206 203 199 198 198 200 206 214 216 212 206 202 202 203 203 199 197 197 202 208 211 212 215 218 217 217 219 223 227 228 227 226 227 227 226
332 332 333 333 334 334 333 333 334 334 334 334 333 332 332 332 334 337 337 332 328 327 324 319 313 308 307 307 299 279 265 263 265 269 277 281 279 286 301 320 345 330 303 314 309 204 200 202 204 201 196 193 193 192 189 184 184 193 201 201 197 195 197 199 202 202 200 200 204 210 212 214 217 219 217 216 218 222 227 230 228 228 231 233 232
332 333 333 333 334 335 334 334 334 334 334 334 334 334 333 333 333 335 338 339 334 327 324 319 314 309 305 302 295 280 268 263 263 266 273 279 282 286 293 303 321 310 277 281 278 212 197 200 203 202 197 195 194 193 191 190 187 186 188 191 192 194 197 200 203 205 206 208 211 215 217 218 220 221 220 218 219 222 227 229 228 227 229 233 234
333 333 333 334 335 335 335 335 334 334 334 334 334 334 334 334 335 335 335 337 337 331 326 321 314 307 302 297 290 279 270 267 267 269 274 278 279 279 282 288 295 292 275 264 256 244 222 207 205 205 203 203 202 200 199 199 198 196 195 194 196 198 201 205 208 210 212 214 217 221 224 225 225 224 223 221 222 225 228 229 228 227 228 229 231
333 333 334 334 335 335 335 335 334 334 334 334 335 335 335 335 335 336 335 336 336 336 332 326 320 314 308 302 295 285 276 271 269 269 270 274 275 272 270 271 274 277 274 260 249 247 244 231 219 213 211 210 210 210 210 210 210 209 207 205 205 205 207 209 212 214 215 217 220 223 226 229 230 229 227 226 228 230 232 233 232 230 231 230 230
334 334 334 335 335 335 335 335 334 333 333 334 335 336 335 334 334 335 336 335 335 335 335 333 330 325 318 312 308 301 291 283 278 273 270 270 271 270 267 264 264 265 265 260 252 248 246 242 236 229 223 220 219 218 219 219 219 218 218 216 215 214 214 215 216 217 219 221 223 226 228 231 233 233 232 233 234 234 234 234 233 232 232 232 231
335 335 335 335 335 336 335 335 334 333 332 333 334 335 335 334 333 333 334 334 335 335 335 334 333 330 323 316 310 303 297 293 289 284 277 270 268 268 267 266 263 262 261 258 254 250 249 247 245 241 236 233 230 228 228 229 229 228 227 225 224 223 222 221 221 222 223 224 227 229 231 233 235 236 237 237 237 237 236 236 234 232 233 234 232
334 334 334 334 335 335 335 334 334 333 332 332 332 333 334 334 333 332 333 334 335 336 336 336 335 332 329 324 317 308 300 296 293 291 286 278 272 269 269 269 267 264 261 258 254 251 250 250 250 250 247 244 241 238 236 235 235 234 232 231 230 229 228 227 227 227 227 229 230 232 235 236 237 239 240 240 239 238 238 237 235 234 233 234 233
332 333 333 333 333 334 334 334 334 333 333 332 331 332 333 334 333 332 332 333 334 336 337 337 336 334 332 331 327 319 308 299 292 288 286 282 278 274 272 271 270 268 265 261 256 252 250 249 250 253 253 251 249 247 242 238 236 235 234 233 233 232 231 230 231 232 232 233 235 236 238 240 241 241 241 241 239 238 237 235 235 234 234 233 231
330 331 331 332 332 332 333 333 333 334 333 332 332 331 332 333 333 333 332 332 333 335 337 337 337 336 335 333 332 328 321 311 301 292 285 281 279 278 275 273 272 271 269 266 261 255 252 249 248 250 252 252 252 251 247 241 237 235 234 235 235 235 234 233 233 234 234 235 236 238 239 239 239 238 237 236 234 233 233 232 233 233 232 230 229
328 329 329 330 330 331 332 332 333 333 333 333 332 331 331 332 333 333 333 332 332 333 336 337 337 337 336 335 334 332 329 323 316 308 298 289 282 280 279 276 273 271 270 268 265 260 254 250 248 247 247 249 249 247 245 241 237 234 233 233 234 234 235 233 233 233 233 234 235 236 236 235 234 232 231 230 230 230 230 231 232 233 232 230 229
326 327 328 328 329 329 330 331 332 333 333 333 332 331 330 331 332 332 333 332 331 331 333 335 337 336 335 334 334 332 329 326 321 315 309 302 293 287 283 278 275 272 269 268 267 263 258 253 249 246 245 244 244 242 240 238 236 232 229 228 229 229 228 227 227 228 229 230 231 232 232 232 232 231 230 230 230 230 231 231 232 233 232 231 230
326 326 327 327 328 328 329 330 330 332 332 332 332 331 331 330 330 331 332 332 331 330 330 332 334 336 335 333 333 332 330 326 322 318 313 308 301 295 288 281 276 273 270 268 266 263 259 256 252 247 244 243 241 239 236 233 232 230 226 223 222 222 221 221 221 221 222 224 225 226 227 228 229 230 230 230 230 230 231 231 232 233 233 232 231
326 326 326 326 326 327 327 328 329 330 331 332 332 331 331 330 329 329 329 330 330 330 329 329 331 333 334 333 332 331 330 326 322 317 313 308 304 299 292 285 280 275 270 268 265 261 258 256 253 249 245 241 238 236 233 229 228 228 226 222 220 219 219 219 219 218 219 220 220 221 222 223 224 226 227 227 228 228 228 229 230 231 231 231 230
326 326 326 325 326 326 326 327 328 328 329 331 331 331 330 329 329 328 328 328 329 330 329 328 328 330 332 333 332 330 329 327 323 319 314 310 306 302 295 287 282 277 272 269 265 260 257 255 253 250 247 242 238 235 231 227 224 224 224 223 222 221 221 220 219 219 219 219 220 220 220 220 221 221 221 222 222 223 223 224 226 226 227 227 227
327 326 326 326 326 326 326 326 326 327 327 329 330 331 331 330 329 328 327 327 328 329 329 328 327 327 329 331 331 330 328 327 324 321 317 312 308 305 299 292 284 277 272 269 265 261 257 253 250 249 247 244 240 236 231 227 223 222 221 222 222 223 224 223 222 222 222 221 222 222 221 221 220 220 218 218 218 218 218 219 220 221 222 222 222
328 328 328 327 327 326 326 326 326 326 326 327 329 330 331 330 329 328 327 326 326 327 328 328 327 326 326 327 329 329 327 326 324 321 318 314 310 306 301 296 288 280 273 268 263 260 257 253 250 247 244 242 241 239 235 229 225 222 221 221 221 222 222 222 222 222 222 223 223 224 224 223 223 222 220 218 217 216 216 216 216 217 218 218 219
329 329 329 328 328 327 326 326 325 325 324 325 327 328 330 330 329 328 327 326 325 325 326 326 327 326 324 324 326 327 326 325 323 321 319 317 314 309 304 298 292 285 278 270 264 260 256 252 250 248 243 239 238 237 236 233 228 224 223 222 221 221 220 220 220 220 220 221 222 223 224 225 225 224 223 221 219 218 216 215 214 214 214 215 216
330 330 330 329 329 328 327 326 325 324 323 323 325 326 327 328 328 327 327 326 325 324 323 324 325 326 324 323 322 323 323 324 323 321 319 317 315 312 308 302 294 289 284 275 268 262 256 252 249 246 244 241 237 234 233 232 230 227 225 223 222 221 221 220 220 220 219 220 220 221 222 224 224 224 223 222 220 219 218 216 214 213 212 212 214
330 330 330 329 329 328 328 327 325 324 322 322 322 323 324 325 326 326 326 325 324 323 322 322 322 324 324 323 321 320 320 320 321 319 317 315 314 311 309 304 297 292 287 281 273 266 259 253 249 245 241 240 238 236 233 230 228 227 226 225 223 222 221 221 221 221 221 222 222 221 222 223 223 223 223 221 219 218 217 216 215 214 213 212 213
331 330 329 329 328 328 328 327 326 324 322 320 320 321 322 323 324 324 324 324 323 322 321 320 320 321 323 323 322 320 318 317 318 317 316 314 312 310 308 305 300 293 288 283 278 270 263 256 251 247 242 238 236 236 235 232 229 226 225 225 224 223 222 221 221 222 222 222 222 222 222 222 222 222 222 221 219 217 216 216 216 215 214 213 212
Height
2953 2949 2946 2942 2939 2935 2931 2927 2924 2920 2917 2913 2910 2907 2903 2900 2897 2895 2892 2888 2885 2882 2878 2875 2873 2870 2868 2865 2863 2861 2860 2858 2856 2854 2853 2852 2851 2849 2848 2846 2844 2843 2842 2841 2840 2838 2837 2837 2837 2838 2837 2836 2836 2835 2835 2834 2834 2834 2834 2834 2834 2834 2834 2833 2832 2836 2838 2838 2839 2842 2845 2847 2849 2851 2853 2853 2854 2855 2856 2858 2860 2862 2865 2867 2868
2947 2943 2940 2936 2931 2927 2923 2920 2916 2913 2910 2907 2904 2901 2898 2895 2891 2888 2885 2882 2879 2875 2872 2869 2866 2863 2861 2859 2856 2854 2852 2850 2848 2846 2845 2843 2842 2841 2840 2838 2836 2835 2834 2832 2831 2830 2829 2829 2829 2829 2828 2828 2828 2827 2827 2827 2827 2827 2827 2827 2827 2827 2827 2827 2827 2828 2830 2831 2832 2835 2839 2840 2843 2845 2847 2848 2849 2850 2851 2853 2855 2857 2859 2861 2862
2941 2936 2932 2929 2925 2921 2918 2915 2912 2908 2905 2902 2898 2895 2892 2888 2885 2881 2878 2875 2872 2868 2865 2863 2860 2857 2854 2852 2849 2847 2844 2843 2841 2839 2837 2835 2834 2833 2832 2830 2829 2827 2825 2824 2823 2822 2821 2821 2821 2820 2820 2819 2820 2819 2819 2820 2820 2820 2820 2820 2820 2821 2821 2822 2822 2823 2824 2824 2825 2829 2833 2834 2836 2839 2841 2842 2843 2844 2846 2847 2849 2852 2853 2855 2856
2934 2930 2927 2924 2920 2917 2914 2911 2908 2904 2900 2896 2892 2889 2885 2882 2878 2875 2871 2868 2865 2861 2858 2855 2852 2850 2847 2844 2842 2840 2837 2835 2833 2831 2829 2828 2826 2825 2823 2822 2821 2820 2818 2816 2815 2813 2813 2813 2812 2812 2812 2811 2812 2812 2812 2812 2813 2813 2813 2814 2814 2815 2816 2816 2817 2818 2818 2818 2819 2822 2826 2828 2830 2833 2835 2836 2838 2839 2840 2842 2844 2846 2848 2849 2851
2929 2926 2922 2919 2916 2912 2908 2905 2901 2897 2894 2890 2886 2882 2878 2875 2871 2867 2864 2861 2857 2854 2851 2848 2845 2842 2839 2837 2834 2832 2829 2827 2825 2823 2821 2820 2818 2817 2815 2814 2813 2812 2810 2809 2807 2806 2805 2805 2804 2804 2804 2804 2804 2804 2805 2805 2806 2806 2807 2807 2808 2809 2810 2811 2812 2813 2812 2812 2813 2816 2820 2823 2824 2827 2829 2831 2832 2833 2835 2837 2839 2841 2843 2844 2845
2924 2921 2917 2913 2909 2905 2901 2897 2894 2890 2886 2883 2879 2875 2872 2868 2864 2860 2857 2853 2850 2847 2844 2840 2837 2834 2832 2829 2826 2824 2822 2819 2817 2815 2813 2811 2810 2808 2807 2805 2804 2803 2802 2801 2799 2798 2797 2796 2797 2796 2796 2796 2796 2797 2798 2798 2799 2799 2800 2801 2803 2804 2805 2805 2807 2807 2807 2807 2808 2809 2813 2817 2819 2821 2824 2825 2826 2827 2829 2832 2834 2836 2837 2839 2840
2919 2915 2911 2907 2902 2898 2895 2891 2887 2883 2879 2876 2872 2868 2864 2861 2857 2853 2849 2846 2842 2839 2836 2833 2830 2827 2824 2821 2819 2816 2814 2812 2809 2807 2805 2803 2802 2800 2798 2797 2796 2795 2794 2792 2791 2790 2789 2789 2789 2789 2788 2789 2789 2790 2791 2792 2792 2793 2794 2796 2797 2798 2799 2800 2801 2801 2802 2802 2802 2804 2807 2811 2813 2815 2818 2820 2820 2821 2824 2826 2828 2831 2832 2834 2836
2912 2908 2904 2900 2896 2892 2888 2885 2881 2877 2873 2869 2865 2861 2858 2854 2850 2846 2842 2838 2835 2832 2828 2825 2823 2819 2817 2814 2811 2809 2806 2804 2802 2799 2797 2795 2793 2792 2790 2788 2787 2786 2785 2784 2783 2782 2781 2781 2781 2781 2782 2782 2783 2784 2784 2785 2786 2787 2788 2790 2791 2793 2794 2795 2795 2796 2796 2797 2798 2799 2802 2806 2808 2809 2813 2815 2815 2817 2819 2820 2823 2827 2828 2828 2830
2905 2901 2898 2894 2890 2886 2882 2878 2874 2870 2866 2862 2858 2854 2850 2846 2842 2839 2835 2831 2827 2824 2821 2817 2814 2812 2809 2806 2804 2801 2799 2797 2794 2792 2789 2787 2785 2784 2782 2780 2779 2778 2776 2776 2775 2774 2774 2774 2774 2775 2775 2776 2777 2777 2778 2779 2780 2781 2783 2785 2786 2788 2789 2789 2790 2790 2791 2791 2793 2795 2797 2801 2803 2804 2807 2810 2811 2812 2813 2814 2818 2822 2823 2824 2825
2900 2896 2892 2888 2884 2879 2875 2871 2867 2863 2858 2854 2850 2846 2842 2839 2835 2831 2827 2824 2820 2817 2813 2810 2807 2804 2801 2798 2796 2794 2791 2789 2787 2785 2782 2780 2777 2775 2773 2772 2770 2769 2769 2768 2767 2767 2767 2767 2768 2768 2769 2770 2770 2771 2772 2773 2775 2776 2778 2780 2781 2783 2784 2784 2785 2785 2786 2786 2788 2791 2793 2796 2798 2800 2803 2806 2806 2807 2808 2810 2813 2817 2818 2819 2820
2895 2890 2886 2882 2877 2873 2868 2864 2860 2855 2851 2847 2843 2839 2835 2831 2827 2824 2820 2816 2813 2809 2806 2803 2799 2796 2793 2790 2788 2785 2783 2781 2779 2777 2775 2773 2770 2768 2765 2764 2762 2761 2761 2760 2759 2759 2760 2760 2761 2762 2763 2764 2764 2765 2766 2768 2770 2772 2773 2775 2777 2778 2778 2779 2780 2781 2781 2782 2784 2786 2788 2791 2794 2796 2798 2800 2800 2801 2803 2805 2809 2812 2813 2814 2815
2889 2884 2880 2875 2871 2866 2862 2858 2853 2849 2845 2840 2836 2832 2828 2824 2820 2816 2812 2809 2805 2802 2798 2795 2792 2788 2785 2782 2780 2777 2775 2773 2771 2769 2767 2765 2763 2760 2758 2756 2755 2753 2752 2752 2752 2752 2753 2754 2755 2756 2757 2758 2759 2760 2761 2763 2765 2767 2768 2770 2772 2772 2773 2773 2775 2776 2776 2777 2779 2782 2784 2787 2790 2792 2794 2795 2795 2796 2798 2801 2804 2807 2807 2808 2810
2882 2878 2874 2869 2865 2860 2856 2851 2847 2843 2838 2834 2829 2825 2821 2817 2813 2808 2805 2801 2798 2794 2791 2787 2784 2781 2778 2775 2772 2770 2767 2765 2763 2761 2759 2757 2755 2753 2751 2749 2748 2746 2744 2744 2745 2746 2747 2748 2749 2750 2751 2752 2753 2755 2757 2759 2761 2762 2764 2765 2766 2767 2768 2769 2770 2771 2772 2772 2774 2777 2780 2783 2785 2787 2789 2789 2789 2790 2794 2797 2800 2801 2802 2803 2805
2877 2872 2868 2863 2858 2854 2849 2845 2840 2836 2832 2827 2823 2818 2814 2809 2805 2801 2797 2794 2790 2787 2784 2780 2777 2774 2770 2767 2764 2762 2760 2758 2756 2753 2751 2750 2748 2746 2744 2742 2741 2739 2737 2737 2738 2740 2741 2742 2743 2744 2746 2747 2748 2749 2752 2754 2756 2757 2758 2759 2760 2762 2763 2765 2765 2766 2767 2768 2770 2774 2777 2779 2781 2783 2784 2783 2784 2787 2791 2793 2794 2795 2797 2799 2800
2870 2866 2862 2857 2852 2848 2843 2839 2834 2829 2825 2821 2816 2812 2807 2803 2798 2794 2790 2786 2783 2780 2776 2773 2769 2766 2763 2760 2757 2754 2752 2750 2748 2746 2744 2742 2741 2739 2737 2735 2733 2732 2731 2730 2731 2733 2735 2736 2737 2739 2740 2742 2743 2745 2747 2749 2751 2752 2753 2754 2755 2757 2758 2760 2761 2762 2763 2764 2766 2770 2773 2774 2776 2778 2778 2778 2780 2785 2787 2788 2789 2791 2792 2794 2796
2865 2861 2856 2851 2847 2842 2836 2832 2828 2823 2818 2814 2810 2806 2801 2797 2792 2787 2783 2780 2776 2773 2770 2766 2763 2759 2756 2753 2749 2747 2745 2743 2741 2738 2736 2735 2734 2732 2730 2728 2727 2726 2725 2725 2725 2727 2730 2731 2732 2733 2735 2737 2739 2741 2742 2744 2745 2746 2748 2749 2751 2752 2754 2756 2757 2758 2759 2760 2763 2767 2769 2770 2772 2774 2773 2775 2778 2781 2782 2783 2785 2787 2788 2789 2791
2860 2855 2850 2845 2841 2836 2830 2825 2821 2817 2812 2808 2804 2799 2795 2790 2786 2781 2777 2774 2770 2767 2763 2760 2756 2753 2749 2746 2743 2740 2738 2736 2734 2732 2730 2728 2727 2725 2723 2722 2721 2720 2720 2720 2720 2722 2724 2726 2727 2728 2730 2731 2734 2737 2738 2739 2740 2741 2743 2744 2746 2747 2750 2752 2753 2753 2755 2757 2760 2763 2765 2766 2768 2769 2770 2772 2775 2776 2778 2780 2781 2782 2784 2785 2787
2854 2850 2845 2840 2835 2830 2825 2820 2815 2810 2806 2801 2797 2793 2789 2784 2780 2775 2771 2767 2764 2761 2757 2753 2750 2747 2743 2740 2736 2733 2731 2729 2727 2725 2723 2722 2720 2719 2717 2715 2715 2715 2714 2715 2715 2716 2718 2720 2722 2723 2725 2727 2730 2733 2734 2734 2734 2735 2738 2740 2741 2743 2746 2748 2748 2749 2751 2753 2756 2758 2760 2762 2764 2765 2767 2769 2771 2773 2775 2776 2777 2778 2780 2781 2782
2849 2844 2839 2834 2829 2824 2819 2814 2809 2805 2800 2796 2792 2787 2783 2779 2774 2770 2766 2762 2759 2756 2751 2747 2744 2741 2738 2734 2731 2727 2724 2722 2721 2719 2717 2716 2715 2713 2711 2710 2709 2709 2709 2710 2711 2712 2714 2715 2717 2719 2721 2724 2726 2728 2729 2730 2730 2731 2733 2735 2737 2740 2743 2743 2743 2745 2747 2749 2752 2754 2756 2758 2759 2761 2764 2766 2767 2769 2772 2772 2773 2775 2777 2778 2778
2844 2839 2834 2829 2824 2819 2814 2809 2805 2800 2795 2791 2787 2782 2777 2773 2769 2765 2761 2758 2754 2751 2747 2742 2739 2736 2733 2729 2726 2723 2719 2716 2715 2714 2712 2711 2709 2708 2706 2704 2703 2704 2705 2706 2707 2708 2710 2711 2713 2715 2718 2720 2722 2723 2725 2726 2726 2727 2729 2731 2734 2737 2738 2738 2739 2741 2743 2745 2748 2750 2752 2754 2755 2757 2760 2762 2764 2766 2768 2769 2770 2772 2774 2774 2775
2839 2835 2830 2825 2820 2815 2810 2805 2800 2796 2791 2786 2782 2778 2773 2769 2764 2760 2756 2753 2750 2746 2742 2738 2734 2731 2728 2725 2722 2718 2715 2712 2709 2708 2707 2706 2705 2703 2701 2700 2700 2700 2701 2702 2703 2704 2706 2707 2709 2712 2714 2716 2717 2719 2720 2722 2722 2723 2724 2727 2731 2733 2733 2733 2735 2737 2739 2741 2744 2746 2748 2749 2751 2754 2757 2759 2761 2763 2765 2767 2768 2769 2770 2771 2772
2834 2830 2825 2821 2816 2811 2806 2801 2796 2791 2787 2782 2778 2774 2769 2765 2760 2756 2752 2748 2745 2741 2737 2733 2730 2727 2725 2722 2719 2715 2712 2709 2706 2704 2703 2702 2701 2700 2698 2697 2697 2697 2696 2697 2699 2700 2701 2703 2705 2707 2709 2711 2713 2714 2716 2717 2718 2719 2720 2724 2727 2728 2728 2730 2731 2732 2735 2738 2740 2742 2744 2746 2749 2752 2755 2758 2760 2761 2762 2764 2765 2766 2767 2768 2769
2830 2825 2821 2816 2811 2807 2802 2797 2792 2787 2783 2778 2773 2769 2765 2761 2756 2752 2748 2744 2741 2738 2734 2730 2726 2723 2721 2719 2716 2713 2710 2707 2703 2701 2700 2699 2698 2697 2695 2694 2694 2693 2693 2694 2695 2696 2697 2699 2701 2703 2705 2706 2708 2710 2711 2713 2714 2715 2718 2721 2723 2724 2724 2726 2727 2728 2731 2734 2736 2739 2741 2744 2747 2750 2753 2756 2758 2759 2760 2761 2763 2764 2765 2766 2767
2825 2821 2816 2812 2807 2803 2798 2793 2788 2784 2779 2774 2770 2765 2761 2756 2752 2748 2744 2740 2737 2734 2730 2727 2723 2720 2717 2715 2713 2711 2708 2705 2702 2700 2698 2697 2696 2695 2693 2693 2692 2691 2691 2692 2692 2693 2695 2696 2698 2700 2701 2703 2705 2706 2707 2709 2710 2713 2715 2717 2719 2719 2720 2721 2723 2725 2728 2730 2733 2736 2739 2742 2745 2749 2752 2754 2755 2756 2757 2759 2760 2762 2763 2764 2765
2821 2816 2811 2807 2802 2798 2794 2789 2784 2780 2776 2771 2766 2761 2756 2752 2749 2745 2740 2736 2733 2730 2727 2724 2720 2717 2714 2712 2710 2708 2705 2703 2701 2699 2697 2696 2694 2693 2692 2691 2690 2690 2689 2690 2690 2691 2692 2694 2695 2696 2698 2699 2701 2702 2703 2705 2707 2710 2712 2713 2715 2716 2716 2718 2720 2723 2725 2728 2731 2734 2737 2741 2744 2747 2749 2750 2752 2753 2755 2757 2759 2760 2761 2762 2763
2816 2811 2807 2802 2798 2793 2789 2785 2781 2777 2772 2768 2763 2758 2753 2749 2745 2741 2737 2733 2730 2727 2724 2721 2717 2715 2713 2710 2708 2705 2704 2702 2700 2698 2697 2695 2694 2692 2691 2690 2689 2688 2688 2687 2688 2689 2690 2691 2692 2693 2694 2696 2697 2698 2699 2702 2704 2706 2708 2709 2711 2712 2713 2715 2717 2720 2723 2726 2729 2733 2736 2740 2743 2744 2745 2747 2749 2752 2753 2755 2757 2758 2759 2760 2761
2812 2807 2802 2798 2794 2789 2785 2780 2776 2772 2769 2765 2760 2756 2751 2746 2742 2738 2733 2729 2726 2724 2721 2718 2715 2712 2710 2708 2706 2704 2703 2702 2700 2698 2697 2696 2695 2692 2691 2689 2688 2686 2686 2685 2685 2686 2687 2688 2689 2690 2691 2692 2694 2695 2696 2698 2700 2702 2703 2705 2707 2709 2711 2713 2715 2718 2722 2725 2729 2732 2735 2737 2739 2740 2743 2745 2748 2749 2751 2753 2755 2756 2757 2758 2759
2807 2803 2798 2794 2789 2785 2780 2776 2772 2768 2764 2761 2757 2752 2748 2744 2740 2736 2730 2725 2722 2720 2717 2714 2711 2708 2707 2706 2704 2703 2702 2701 2698 2697 2696 2696 2694 2691 2689 2688 2687 2685 2684 2683 2683 2684 2685 2685 2686 2687 2688 2690 2691 2692 2694 2696 2698 2699 2701 2702 2705 2707 2710 2712 2714 2717 2720 2723 2727 2730 2732 2734 2736 2738 2741 2743 2745 2747 2749 2751 2752 2753 2755 2756 2757
2803 2799 2794 2790 2785 2781 2777 2772 2768 2764 2760 2757 2754 2750 2745 2740 2737 2734 2730 2724 2720 2717 2714 2711 2708 2705 2705 2704 2703 2701 2700 2699 2698 2697 2697 2696 2693 2690 2688 2687 2685 2684 2683 2682 2681 2682 2683 2683 2684 2685 2687 2688 2690 2691 2693 2694 2696 2697 2698 2700 2703 2705 2708 2710 2712 2715 2718 2721 2724 2727 2729 2731 2734 2736 2739 2741 2743 2745 2747 2748 2750 2751 2753 2754 2755
2799 2795 2790 2786 2782 2777 2773 2769 2765 2761 2757 2753 2750 2748 2745 2740 2735 2731 2728 2724 2720 2717 2715 2711 2708 2704 2703 2703 2703 2701 2699 2698 2697 2696 2695 2693 2691 2690 2688 2686 2684 2683 2682 2681 2680 2680 2681 2682 2683 2684 2686 2688 2689 2691 2692 2693 2694 2696 2697 2699 2701 2704 2706 2708 2710 2713 2716 2719 2722 2724 2727 2729 2732 2734 2736 2739 2741 2742 2744 2746 2747 2749 2750 2752 2753
2795 2791 2786 2782 2778 2774 2769 2766 2762 2758 2754 2750 2746 2743 2741 2740 2736 2732 2727 2723 2719 2716 2713 2711 2708 2704 2702 2701 2701 2700 2698 2697 2696 2695 2693 2691 2690 2688 2687 2685 2684 2683 2682 2681 2680 2680 2681 2682 2683 2684 2686 2688 2689 2690 2691 2692 2693 2695 2696 2698 2701 2703 2705 2708 2710 2712 2715 2717 2720 2722 2725 2727 2729 2731 2734 2736 2738 2740 2741 2743 2745 2747 2748 2750 2751
2791 2787 2783 2779 2775 2771 2767 2762 2758 2755 2751 2747 2744 2739 2736 2734 2733 2731 2727 2723 2718 2713 2710 2708 2706 2704 2701 2699 2698 2697 2696 2695 2694 2693 2691 2690 2689 2688 2687 2685 2685 2684 2683 2681 2681 2680 2681 2682 2683 2684 2686 2687 2689 2689 2690 2691 2693 2694 2696 2698 2700 2702 2704 2707 2709 2711 2714 2716 2718 2720 2722 2724 2727 2729 2731 2734 2736 2737 2739 2740 2742 2744 2746 2747 2749
2788 2783 2779 2776 2772 2768 2764 2759 2755 2751 2748 2744 2740 2737 2733 2729 2726 2724 2723 2722 2718 2713 2709 2706 2703 2701 2699 2698 2696 2694 2693 2692 2691 2691 2690 2689 2688 2688 2687 2686 2685 2684 2683 2682 2682 2681 2681 2682 2683 2684 2686 2687 2687 2688 2689 2690 2692 2693 2695 2697 2699 2701 2703 2705 2707 2709 2711 2714 2716 2717 2719 2722 2724 2726 2729 2731 2733 2735 2737 2738 2740 2742 2743 2745 2746
2786 2781 2777 2772 2769 2765 2761 2756 2752 2748 2745 2741 2737 2734 2730 2727 2723 2719 2717 2716 2715 2713 2709 2705 2702 2699 2697 2695 2694 2692 2690 2689 2688 2688 2688 2687 2687 2687 2686 2685 2685 2684 2683 2682 2682 2682 2682 2682 2683 2684 2685 2685 2686 2687 2688 2689 2691 2692 2694 2696 2697 2699 2701 2703 2705 2707 2709 2711 2713 2715 2717 2719 2722 2724 2726 2728 2731 2732 2734 2736 2737 2739 2741 2742 2744
2783 2779 2774 2770 2766 2762 2758 2754 2750 2746 2742 2739 2735 2731 2728 2724 2721 2717 2714 2711 2709 2708 2706 2703 2700 2697 2694 2692 2691 2689 2688 2687 2686 2685 2685 2685 2685 2685 2684 2684 2684 2683 2683 2682 2682 2682 2682 2682 2682 2683 2684 2684 2685 2686 2687 2688 2689 2691 2692 2694 2696 2697 2699 2701 2703 2705 2707 2709 2711 2713 2715 2717 2719 2721 2723 2725 2728 2730 2731 2733 2735 2736 2738 2740 2741
2781 2776 2772 2768 2764 2760 2756 2751 2747 2743 2739 2736 2732 2729 2725 2722 2719 2716 2713 2710 2706 2704 2702 2700 2698 2695 2692 2690 2688 2687 2685 2684 2683 2683 2682 2682 2682 2682 2682 2682 2682 2682 2682 2681 2681 2681 2681 2681 2681 2682 2682 2683 2684 2685 2686 2687 2688 2689 2691 2692 2694 2695 2697 2699 2701 2703 2705 2707 2708 2710 2712 2714 2716 2718 2720 2722 2725 2727 2728 2730 2732 2734 2735 2737 2738
2778 2773 2769 2764 2761 2757 2753 2749 2745 2741 2737 2734 2730 2727 2724 2721 2717 2714 2711 2708 2705 2702 2699 2697 2695 2693 2691 2689 2687 2685 2683 2682 2681 2680 2679 2679 2679 2679 2680 2680 2680 2680 2680 2680 2680 2680 2680 2680 2680 2681 2681 2682 2682 2683 2684 2685 2687 2688 2689 2690 2691 2693 2694 2696 2698 2700 2702 2703 2705 2707 2709 2711 2713 2715 2717 2719 2721 2723 2725 2727 2729 2730 2732 2734 2735
2775 2770 2765 2761 2757 2754 2750 2747 2743 2739 2736 2732 2728 2725 2722 2719 2716 2712 2709 2706 2703 2700 2697 2695 2693 2691 2689 2687 2685 2683 2681 2680 2679 2678 2677 2677 2677 2677 2677 2677 2677 2677 2677 2677 2677 2677 2678 2678 2678 2679 2679 2680 2680 2681 2682 2683 2684 2685 2686 2687 2688 2690 2692 2693 2695 2696 2698 2700 2702 2704 2706 2708 2710 2712 2714 2716 2718 2719 2721 2723 2725 2727 2729 2731 2732
2772 2768 2763 2759 2755 2751 2747 2744 2740 2736 2733 2729 2726 2723 2720 2717 2713 2710 2707 2705 2702 2699 2696 2693 2691 2688 2686 2685 2683 2681 2680 2678 2677 2676 2675 2675 2674 2674 2674 2674 2674 2674 2674 2674 2674 2674 2675 2675 2676 2676 2677 2678 2678 2679 2680 2681 2682 2683 2683 2684 2685 2687 2688 2690 2691 2693 2695 2697 2698 2700 2702 2704 2706 2708 2710 2712 2714 2716 2718 2720 2722 2724 2726 2728 2729
2769 2765 2761 2756 2752 2748 2745 2741 2738 2734 2730 2727 2723 2720 2717 2714 2711 2708 2705 2702 2700 2697 2694 2691 2689 2687 2684 2682 2681 2679 2678 2676 2675 2674 2673 2673 2672 2672 2671 2671 2671 2671 2671 2671 2671 2671 2672 2672 2673 2673 2674 2675 2675 2676 2677 2678 2679 2680 2681 2681 2682 2684 2685 2687 2688 2689 2691 2693 2695 2697 2698 2700 2702 2704 2706 2708 2710 2712 2714 2716 2718 2720 2722 2724 2726
2765 2761 2757 2753 2749 2746 2742 2738 2735 2731 2728 2724 2720 2717 2714 2711 2709 2706 2703 2700 2698 2695 2692 2690 2687 2685 2683 2681 2679 2677 2676 2674 2673 2672 2671 2671 2670 2670 2669 2669 2669 2669 2669 2668 2668 2669 2669 2669 2670 2671 2671 2672 2672 2673 2674 2675 2676 2677 2678 2679 2680 2681 2682 2684 2685 2687 2688 2690 2692 2693 2695 2697 2699 2701 2703 2705 2707 2709 2711 2712 2714 2716 2719 2721 2723
2761 2757 2754 2750 2746 2743 2739 2735 2732 2729 2725 2722 2718 2715 2712 2709 2706 2703 2701 2698 2696 2693 2691 2689 2686 2684 2682 2680 2678 2676 2674 2673 2671 2670 2669 2669 2668 2668 2667 2667 2667 2666 2666 2666 2666 2666 2667 2667 2667 2668 2668 2669 2670 2670 2671 2672 2673 2674 2675 2676 2678 2679 2680 2682 2683 2684 2686 2687 2689 2691 2693 2694 2696 2698 2700 2702 2704 2705 2707 2709 2711 2713 2715 2718 2720
2757 2753 2750 2747 2743 2739 2736 2733 2729 2726 2723 2719 2716 2713 2710 2707 2704 2701 2699 2696 2694 2691 2689 2687 2685 2683 2681 2679 2677 2675 2673 2672 2670 2669 2668 2667 2666 2666 2665 2665 2665 2664 2664 2664 2664 2664 2665 2665 2665 2666 2666 2667 2667 2668 2668 2669 2670 2672 2673 2674 2675 2677 2678 2679 2681 2682 2684 2685 2687 2689 2690 2692 2693 2695 2697 2698 2700 2702 2704 2706 2708 2710 2712 2714 2716
2753 2750 2746 2743 2740 2736 2733 2730 2726 2723 2720 2717 2714 2710 2707 2705 2702 2699 2697 2694 2692 2689 2687 2685 2683 2681 2679 2678 2676 2674 2672 2670 2669 2667 2666 2665 2665 2664 2663 2663 2663 2663 2662 2662 2662 2662 2663 2663 2663 2664 2664 2664 2665 2666 2666 2667 2668 2669 2671 2672 2673 2675 2676 2677 2678 2680 2681 2683 2685 2686 2688 2689 2691 2692 2694 2695 2697 2699 2701 2703 2705 2706 2709 2711 2713
2749 2746 2743 2740 2736 2733 2730 2727 2724 2720 2717 2714 2712 2709 2706 2703 2700 2697 2695 2692 2690 2688 2685 2683 2681 2679 2678 2676 2674 2672 2671 2669 2667 2666 2665 2664 2663 2662 2662 2661 2661 2661 2661 2661 2661 2661 2661 2661 2661 2662 2662 2663 2663 2664 2664 2665 2666 2667 2669 2670 2671 2673 2674 2675 2676 2678 2679 2681 2682 2684 2685 2687 2688 2690 2691 2693 2695 2696 2698 2700 2701 2703 2705 2707 2710
2746 2742 2739 2736 2733 2730 2727 2724 2721 2718 2714 2712 2709 2706 2704 2701 2698 2695 2693 2690 2688 2686 2684 2682 2680 2678 2676 2674 2672 2671 2669 2668 2666 2665 2663 2662 2661 2661 2660 2659 2659 2659 2659 2659 2659 2659 2659 2659 2659 2660 2660 2661 2662 2662 2663 2664 2665 2666 2667 2668 2670 2671 2672 2674 2675 2676 2677 2679 2680 2682 2683 2685 2686 2688 2689 2691 2692 2694 2695 2697 2699 2701 2702 2705 2707
2743 2739 2736 2732 2729 2726 2723 2720 2717 2715 2712 2709 2706 2704 2701 2699 2696 2693 2690 2688 2686 2684 2682 2680 2678 2676 2674 2672 2671 2669 2668 2666 2665 2663 2662 2661 2660 2659 2658 2658 2657 2657 2657 2657 2657 2657 2657 2657 2658 2658 2658 2659 2660 2661 2661 2662 2663 2664 2665 2666 2668 2669 2670 2672 2673 2674 2676 2677 2679 2680 2682 2683 2684 2686 2687 2689 2690 2692 2693 2695 2697 2698 2700 2702 2704
2739 2736 2732 2729 2726 2723 2720 2717 2714 2711 2709 2706 2703 2701 2699 2696 2694 2691 2688 2686 2684 2682 2680 2678 2676 2674 2672 2671 2669 2667 2666 2664 2663 2662 2660 2659 2658 2657 2657 2656 2655 2655 2655 2655 2655 2655 2655 2655 2656 2656 2657 2657 2658 2658 2659 2660 2661 2662 2663 2665 2666 2667 2669 2670 2671 2673 2674 2675 2677 2678 2680 2681 2683 2684 2685 2687 2688 2690 2692 2693 2695 2696 2698 2700 2702
2735 2732 2729 2726 2723 2719 2716 2713 2710 2708 2705 2703 2701 2698 2696 2694 2691 2689 2686 2684 2682 2680 2678 2676 2674 2672 2671 2669 2668 2666 2664 2663 2662 2660 2659 2658 2656 2656 2655 2654 2654 2653 2653 2653 2653 2653 2653 2653 2654 2654 2655 2655 2656 2656 2657 2658 2659 2660 2662 2663 2664 2665 2667 2668 2669 2671 2672 2674 2675 2676 2678 2679 2681 2682 2684 2685 2687 2688 2690 2691 2693 2694 2696 2698 2700
2732 2729 2725 2722 2719 2716 2713 2710 2707 2705 2702 2699 2697 2695 2693 2691 2689 2686 2684 2682 2679 2677 2676 2674 2672 2670 2669 2667 2666 2664 2663 2661 2660 2659 2657 2656 2655 2654 2653 2652 2652 2651 2651 2651 2651 2651 2651 2651 2652 2652 2652 2653 2654 2654 2655 2656 2657 2658 2659 2661 2662 2663 2665 2666 2668 2669 2670 2672 2673 2675 2676 2678 2679 2680 2682 2683 2685 2686 2688 2690 2691 2693 2694 2696 2698
2729 2726 2722 2719 2716 2713 2710 2707 2705 2702 2699 2696 2694 2692 2690 2688 2686 2684 2682 2679 2677 2675 2673 2672 2670 2668 2666 2665 2664 2663 2661 2660 2658 2657 2656 2655 2654 2653 2652 2651 2650 2650 2649 2649 2649 2649 2649 2649 2650 2650 2650 2651 2651 2652 2653 2654 2655 2656 2657 2658 2660 2661 2663 2664 2665 2667 2668 2670 2671 2673 2674 2676 2677 2679 2680 2682 2683 2685 2686 2688 2689 2691 2692 2694 2696